Tracking 34085 objects as of 13-May-2026
HD Live streaming from Space Station
objects crossing your sky now

STARLINK-37017

Track STARLINK-37017 now!
10-day predictions
STARLINK-37017 is classified as:


NORAD ID: 68108
Int'l Code: 2026-044H
Perigee: 471.4 km
Apogee: 473.9 km
Inclination: 97.3 °
Period: 93.9 minutes
Semi major axis: 6843 km
RCS: Unknown
Launch date: March 8, 2026
Source: United States (US)
Launch site: AIR FORCE WESTERN TEST RANGE (AFWTR)
Your satellite tracking list
Your tracking list is empty




NASA's NSSDC Master Catalog

Two Line Element Set (TLE):
1 68108U 26044H   26132.84697295  .00006302  00000-0  19735-3 0  9992
2 68108  97.2821  93.6198 0001865  38.6652 321.4724 15.33449887 11412
Source of the keplerian elements: AFSPC